User: anonymous   Login
Location: Seminole
(32.7190°N, 102.6440°W)
Time: 07:09:34
(UTC-05:00)
Language:

Meteor 2-10 - Orbit

View from above orbital plane
View from above orbital plane
View from above satellite
View from above satellite

Ground track
Ground track

The orbit data is extracted from the following two-line orbital elements,

1 14452U 83109A   17085.70541956 +.00000078 +00000-0 +26503-4 0  9990
2 14452 081.1635 159.5799 0089888 260.0945 099.0079 14.26424115736981
Epoch (UTC): 26 March 2017 16:55:48
Eccentricity: 0.0089888
inclination: 81.1635°
perigee height: 739 km
apogee height: 868 km
right ascension of ascending node: 159.5799°
argument of perigee: 260.0945°
revolutions per day: 14.26424115
mean anomaly at epoch: 99.0079°
orbit number at epoch: 73698

The dashed part of the orbit path shows where the satellite is in the earth's shadow,  

DLR